Regional Weather Roundup
Issued by NWS

Home | Current Version | Previous Version | Text Only | Print | Product List | Glossary Off
Versions: 1 2 3 4 5 6 7 8 9 10 11 12 13 14 15 16 17 18 19 20 21 22 23 24 25 26 27 28 29 30 31 32 33 34 35 36 37 38 39 40 41 42 43 44 45 46 47 48 49 50

000
ASUS43 KFSD 261910
RWRSD

WEATHER ROUNDUP FOR SOUTH DAKOTA
NATIONAL WEATHER SERVICE SIOUX FALLS SD
100 PM CST MON JAN 26 2015

NOTE: "FAIR" INDICATES FEW OR NO CLOUDS BELOW 12,000 FEET WITH NO
SIGNIFICANT WEATHER AND/OR OBSTRUCTIONS TO VISIBILITY.


SDZ001>005-009-010-012>017-262000-
NORTHWEST AND NORTH CENTRAL SOUTH DAKOTA

CITY           SKY/WX    TMP DP  RH WIND       PRES   REMARKS
BUFFALO          N/A     59  33  37 W12       29.95F
FAITH            N/A     56  25  30 NW14      30.01F
MOBRIDGE       SUNNY     51  35  54 NW14      29.94F
$$

SDZ012>016-024>037-041>051-057-063-072>074-262000-
SOUTHWEST AND SOUTH CENTRAL SOUTH DAKOTA

CITY           SKY/WX    TMP DP  RH WIND       PRES   REMARKS
RAPID CTY ARPT SUNNY     66  29  24 NW24      30.05F
PIERRE         SUNNY     54  32  43 NW15      30.01R
CUSTER         SUNNY     60  24  25 NW14G23   30.13F
ELLSWORTH AFB  SUNNY     65  31  27 N18       30.05F
PHILIP         MOSUNNY   63  32  31 NW15      30.01F
PINE RIDGE     SUNNY     58  36  43 SW8       30.09F
SPEARFISH      FAIR      63  30  29 W17       30.08F
WINNER         FAIR      58  31  35 NW17      30.01F
$$

SDZ004>011-016>023-039-040-262000-
NORTHEAST SOUTH DAKOTA

CITY           SKY/WX    TMP DP  RH WIND       PRES   REMARKS
ABERDEEN       SUNNY     47  37  68 NW16      29.94R
WATERTOWN      SUNNY     42  34  73 NW20G30   29.87R
SISSETON         N/A     43  35  73 NW26G33   29.84R
$$

SDZ017-020-022-023-036>040-048>070-262000-
SOUTHEAST SOUTH DAKOTA

CITY           SKY/WX    TMP DP  RH WIND       PRES   REMARKS
SIOUX FALLS    MOSUNNY   47  38  71 NW18      29.89S
HURON          SUNNY     49  38  65 NW17G28   29.92F
CHAMBERLAIN    SUNNY     52  34  51 NW15      29.99S
MITCHELL       SUNNY     52  39  61 NW17      29.94F
YANKTON        SUNNY     52  37  58 NW18      29.94F
$$

ABBREVIATIONS USED IN REMARKS
   TC - TEMPERATURE IN CELSIUS
  WCI - WIND CHILL INDEX
   HX - HEAT INDEX
  VSB - VISIBILITY



USA.gov is the U.S. government's official web portal to all federal, state and local government web resources and services.